Location: Newark
(41.9364°N, 2.8061°E)
Time: 21:30:19
(UTC+00:00)

Tiros 1 despin weight - Visible Passes

Search period start: 17 February 2020 00:00
Search period end: 27 February 2020 00:00
Orbit: 594 x 642 km, 48.2° (Epoch: 16 February)

Date Brightness Start Highest point End Pass type
(mag) Time Alt. Az. Time Alt. Az. Time Alt. Az.
17 Feb ? 04:14:12 33° NNE 04:14:12 33° NNE 04:17:06 10° ENE visible
17 Feb ? 05:51:15 12° WNW 05:55:06 39° N 05:59:17 10° E visible
18 Feb ? 04:29:57 36° N 04:29:57 36° N 04:33:49 10° ENE visible
18 Feb ? 06:07:33 10° WNW 06:11:51 49° NNE 06:16:10 10° E visible
19 Feb ? 04:45:43 33° NNW 04:46:31 36° N 04:50:38 10° ENE visible
20 Feb ? 03:24:25 15° NE 03:24:25 15° NE 03:25:17 10° ENE visible
20 Feb ? 05:01:29 28° NW 05:03:18 42° NNE 05:07:32 10° E visible
21 Feb ? 03:40:13 21° NE 03:40:13 21° NE 03:42:01 10° ENE visible
21 Feb ? 05:17:16 21° NW 05:20:02 56° NNE 05:24:24 10° E visible
22 Feb ? 03:56:03 31° NE 03:56:03 31° NE 03:58:53 10° ENE visible
22 Feb ? 05:33:06 16° WNW 05:36:39 85° NNE 05:41:06 10° ESE visible
23 Feb ? 04:11:56 45° NE 04:11:56 45° NE 04:15:46 10° E visible
23 Feb ? 05:49:00 11° WNW 05:53:09 57° SW 05:57:29 10° SE visible
24 Feb ? 04:27:53 63° N 04:28:12 66° NNE 04:32:35 10° ESE visible
25 Feb ? 03:06:50 12° E 03:06:50 12° E 03:07:08 10° E visible
25 Feb ? 04:43:55 57° WNW 04:44:46 79° SSW 04:49:11 10° SE visible
26 Feb ? 03:22:58 17° E 03:22:58 17° E 03:24:01 10° E visible
26 Feb ? 05:00:04 36° WSW 05:01:12 44° SW 05:05:25 10° SE visible
